Location: Unspecified
(0.0000°N, 0.0000°E)
Time: 20:23:43
(UTC+00:00)

SL-08 R/B - Pass Details

Date: 04 February 2026
Orbit: 666 x 730 km, 98.5° (Epoch: 29 March)

Event Time Altitude Azimuth Distance (km) Brightness Sun altitude
Exits shadow 19:25:45 32° 79° (E) 1,149 3.8 -17.2°
Maximum altitude 19:26:36 34° 102° (ESE) 1,089 3.8 -17.4°
Drops below altitude 10° 19:30:43 10° 167° (SSE) 2,092 5.8 -18.4°
Sets 19:33:07 0° 176° (S) 3,011 6.8 -19.0°
